KG6SIB Weather Reports


time (UTC)temp
C
wind
direction
speed
KPH
gust
KPH
rain 1hr
cm
rain 24hr
cm
rain mn
cm
humidity
%
barometer
mb
20260504235133 12 204 9.7 24.1 0.00 0.00 0.00 64 1014.4
20260504233133 12 201 8.0 24.1 0.00 0.00 0.00 63 1014.2
20260504232633 12 240 8.0 24.1 0.00 0.00 0.00 62 1014.1
20260504232132 12 211 17.7 24.1 0.00 0.00 0.00 63 1014.2
20260504231632 12 265 6.4 16.1 0.00 0.00 0.00 63 1014.1
20260504231132 12 214 3.2 16.1 0.00 0.00 0.00 62 1014.1
20260504230632 13 228 3.2 22.5 0.00 0.00 0.00 63 1014.6
20260504230133 13 254 16.1 25.7 0.00 0.00 0.00 62 1014.5
20260504225632 13 224 4.8 25.7 0.00 0.00 0.00 61 1014.4
20260504225133 13 249 16.1 24.1 0.00 0.00 0.00 61 1014.4
20260504224632 13 233 9.7 24.1 0.00 0.00 0.00 62 1014.5
20260504224132 13 251 11.3 25.7 0.00 0.00 0.00 62 1014.5
20260504223132 13 234 4.8 24.1 0.00 0.00 0.00 60 1014.2
20260504222632 13 235 17.7 20.9 0.00 0.00 0.00 60 1014.5
20260504222132 13 217 12.9 20.9 0.00 0.00 0.00 61 1014.7
20260504221632 13 225 11.3 22.5 0.00 0.00 0.00 61 1014.8
20260504221132 13 227 9.7 22.5 0.00 0.00 0.00 60 1014.8
20260504220632 13 255 11.3 24.1 0.00 0.00 0.00 61 1014.8
20260504215632 13 180 4.8 27.4 0.00 0.00 0.00 60 1015.1
20260504215132 14 253 14.5 27.4 0.00 0.00 0.00 60 1015.0
20260504214632 14 247 19.3 29.0 0.00 0.00 0.00 60 1015.1
20260504214131 14 224 3.2 29.0 0.00 0.00 0.00 61 1015.1
20260504213631 14 217 4.8 27.4 0.00 0.00 0.00 61 1015.2
20260504213132 14 215 4.8 24.1 0.00 0.00 0.00 60 1015.3
20260504212631 14 202 6.4 24.1 0.00 0.00 0.00 60 1015.3
20260504211631 15 221 6.4 20.9 0.00 0.00 0.00 57 1015.6
20260504211131 15 255 6.4 24.1 0.00 0.00 0.00 60 1015.5
20260504210631 14 158 4.8 25.7 0.00 0.00 0.00 59 1015.3
20260504210132 14 248 17.7 25.7 0.00 0.00 0.00 58 1015.2
20260504205631 15 205 6.4 25.7 0.00 0.00 0.00 59 1015.6
20260504205131 15 260 9.7 29.0 0.00 0.00 0.00 59 1015.7
20260504204631 15 230 12.9 29.0 0.00 0.00 0.00 60 1015.5
20260504204131 14 211 8.0 22.5 0.00 0.00 0.00 59 1015.1
20260504203131 15 231 11.3 25.7 0.00 0.00 0.00 57 1015.6
20260504202631 15 232 9.7 22.5 0.00 0.00 0.00 60 1015.7
20260504202131 14 218 3.2 24.1 0.00 0.00 0.00 60 1015.4
20260504200130 13 241 20.9 25.7 0.00 0.00 0.00 61 1015.5
20260504195630 13 236 4.8 25.7 0.00 0.00 0.00 64 1015.6
20260504194130 13 172 4.8 22.5 0.00 0.00 0.00 63 1015.6
20260504193631 13 235 4.8 22.5 0.00 0.00 0.00 64 1015.7
20260504193130 13 202 3.2 22.5 0.00 0.00 0.00 65 1015.5
20260504192631 12 240 4.8 22.5 0.00 0.00 0.00 66 1015.4
20260504192130 12 252 11.3 22.5 0.00 0.00 0.00 68 1015.2
20260504191630 12 244 11.3 17.7 0.00 0.00 0.00 70 1015.2
20260504191130 12 232 4.8 19.3 0.00 0.00 0.00 68 1015.3
20260504190130 12 222 8.0 22.5 0.00 0.00 0.00 73 1015.3
20260504185630 11 225 9.7 17.7 0.00 0.00 0.00 73 1015.4
20260504184630 11 242 4.8 20.9 0.00 0.00 0.00 73 1015.5
20260504183129 11 227 12.9 19.3 0.00 0.00 0.00 75 1015.3
20260504182630 11 231 1.6 19.3 0.00 0.00 0.00 75 1015.4
20260504182130 11 238 12.9 17.7 0.00 0.00 0.00 73 1015.5
20260504181629 11 220 8.0 20.9 0.00 0.00 0.00 74 1015.5
20260504181130 11 200 4.8 20.9 0.00 0.00 0.00 74 1015.4
20260504180630 11 214 8.0 17.7 0.00 0.00 0.00 77 1015.0
20260504180129 11 272 11.3 19.3 0.00 0.00 0.00 76 1015.0
20260504175630 11 229 9.7 19.3 0.00 0.00 0.00 74 1015.3
20260504175129 11 236 14.5 17.7 0.00 0.00 0.00 72 1015.4
20260504174630 11 244 4.8 19.3 0.00 0.00 0.00 73 1015.4
20260504174129 11 260 9.7 19.3 0.00 0.00 0.00 75 1015.2
20260504173629 11 230 12.9 16.1 0.00 0.00 0.00 75 1015.2
20260504173129 11 219 1.6 17.7 0.00 0.00 0.00 76 1015.2
20260504172129 10 231 11.3 19.3 0.00 0.00 0.00 78 1014.8
20260504171128 10 232 11.3 20.9 0.00 0.00 0.00 79 1014.6
20260504170629 10 238 14.5 20.9 0.00 0.00 0.00 80 1014.5
20260504170129 10 233 9.7 19.3 0.00 0.00 0.00 80 1014.4
20260504160128 10 202 8.0 16.1 0.00 0.00 0.00 76 1014.3
20260504151127 8 246 1.6 17.7 0.00 0.00 0.00 87 1014.0
20260504150628 8 229 12.9 19.3 0.00 0.00 0.00 89 1013.5
20260504150128 8 225 6.4 19.3 0.00 0.00 0.00 90 1013.5
20260504141126 7 208 8.0 17.7 0.00 0.00 0.00 91 1013.1
20260504140627 7 217 0.0 17.7 0.00 0.00 0.00 91 1013.2
20260504140126 7 226 6.4 16.1 0.00 0.00 0.00 91 1013.5
20260504130626 7 239 6.4 17.7 0.00 0.00 0.00 92 1013.0
20260504130126 7 236 6.4 17.7 0.00 0.00 0.00 92 1012.9
20260504120126 7 242 12.9 19.3 0.00 0.00 0.00 92 1013.3
20260504110625 7 260 6.4 22.5 0.00 0.00 0.00 91 1013.6
20260504110125 7 259 12.9 22.5 0.00 0.00 0.00 91 1013.6
20260504100124 8 243 12.9 19.3 0.00 0.00 0.00 91 1013.7
20260504090124 8 254 11.3 16.1 0.00 0.00 0.00 89 1014.3
20260504081623 8 209 4.8 20.9 0.00 0.00 0.00 89 1014.7
20260504081123 8 250 12.9 17.7 0.00 0.00 0.00 89 1014.8
20260504080623 8 232 11.3 14.5 0.00 0.00 0.00 89 1014.9
20260504080123 8 217 9.7 20.9 0.00 0.00 0.00 89 1015.1
20260504070152 8 227 14.5 22.5 0.00 0.00 0.00 88 1014.9
20260504060122 8 229 3.2 16.1 0.00 0.00 0.00 89 1014.6
20260504050621 8 248 1.6 14.5 0.00 0.00 0.00 88 1014.9
20260504050151 8 246 4.8 14.5 0.00 0.00 0.00 88 1014.9
20260504045621 8 233 8.0 19.3 0.00 0.00 0.00 88 1014.6
20260504045121 8 252 8.0 19.3 0.00 0.00 0.00 88 1014.5
20260504044620 8 203 6.4 19.3 0.00 0.00 0.00 88 1014.6
20260504044120 8 225 1.6 17.7 0.00 0.00 0.00 87 1014.3
20260504043621 8 219 9.7 17.7 0.00 0.00 0.00 87 1014.2
20260504043121 8 244 4.8 14.5 0.00 0.00 0.00 87 1014.3
20260504042621 8 219 9.7 14.5 0.00 0.00 0.00 87 1014.4
20260504042121 8 210 6.4 8.0 0.00 0.00 0.00 87 1014.2
20260504041620 9 229 4.8 9.7 0.00 0.00 0.00 87 1014.2
20260504041120 9 219 6.4 9.7 0.00 0.00 0.00 87 1014.2
20260504040620 8 240 3.2 9.7 0.00 0.00 0.00 87 1014.0
20260504040150 8 232 3.2 11.3 0.00 0.00 0.00 87 1014.1
20260504035120 8 232 9.7 14.5 0.00 0.00 0.00 86 1013.8
20260504034620 9 238 4.8 12.9 0.00 0.00 0.00 86 1013.6
20260504034150 9 268 11.3 14.5 0.00 0.00 0.00 86 1014.0
20260504033650 9 262 3.2 16.1 0.00 0.00 0.00 86 1013.7
20260504032650 9 232 8.0 22.5 0.00 0.00 0.00 85 1013.6
20260504032150 9 223 1.6 22.5 0.00 0.00 0.00 85 1013.6
20260504031650 9 242 4.8 16.1 0.00 0.00 0.00 86 1013.5
20260504031149 9 224 4.8 16.1 0.00 0.00 0.00 86 1013.4
20260504030650 9 218 6.4 14.5 0.00 0.00 0.00 86 1013.3
20260504030150 9 235 6.4 17.7 0.00 0.00 0.00 86 1013.2
20260504025649 9 232 8.0 17.7 0.00 0.00 0.00 85 1012.5
20260504025150 10 234 0.0 16.1 0.00 0.00 0.00 85 1012.6
20260504024649 10 255 3.2 16.1 0.00 0.00 0.00 84 1012.7
20260504024149 10 237 8.0 17.7 0.00 0.00 0.00 84 1012.8
20260504023149 10 234 4.8 16.1 0.00 0.00 0.00 84 1012.7
20260504022649 10 245 12.9 20.9 0.00 0.00 0.00 83 1012.9
20260504022149 10 222 8.0 20.9 0.00 0.00 0.00 83 1013.0
20260504021649 10 240 6.4 19.3 0.00 0.00 0.00 82 1012.8
20260504021149 10 231 8.0 19.3 0.00 0.00 0.00 82 1012.6
20260504020649 10 197 14.5 17.7 0.00 0.00 0.00 81 1012.6
20260504020149 11 227 9.7 17.7 0.00 0.00 0.00 80 1012.7
20260504015649 11 243 9.7 20.9 0.00 0.00 0.00 79 1011.8
20260504015149 11 229 9.7 24.1 0.00 0.00 0.00 78 1011.9
20260504014149 11 212 8.0 24.1 0.00 0.00 0.00 76 1012.2
20260504013649 12 247 16.1 22.5 0.00 0.00 0.00 76 1012.0
20260504012648 12 227 11.3 20.9 0.00 0.00 0.00 76 1011.7
20260504012149 12 265 16.1 22.5 0.00 0.00 0.00 76 1011.6
20260504011648 12 229 8.0 22.5 0.00 0.00 0.00 76 1011.8
20260504011148 12 217 8.0 20.9 0.00 0.00 0.00 75 1011.7
20260504010648 12 236 9.7 20.9 0.00 0.00 0.00 75 1011.7
20260504010148 13 253 17.7 17.7 0.00 0.00 0.00 74 1011.6
20260504005648 13 230 9.7 17.7 0.00 0.00 0.00 74 1011.0
20260504004648 13 234 14.5 16.1 0.00 0.00 0.00 73 1011.0
20260504004148 13 227 14.5 16.1 0.00 0.00 0.00 73 1010.8
20260504003148 14 256 8.0 19.3 0.00 0.00 0.00 73 1011.2
20260504002647 14 229 9.7 19.3 0.00 0.00 0.00 72 1011.1
20260504002147 14 257 3.2 16.1 0.00 0.00 0.00 72 1010.9
20260504001647 14 214 6.4 14.5 0.00 0.00 0.00 72 1011.0
20260504001148 14 215 8.0 14.5 0.00 0.00 0.00 72 1011.1
20260504000647 14 246 6.4 14.5 0.00 0.00 0.00 72 1011.0
20260503235647 15 263 6.4 12.9 0.00 0.00 0.00 72 1011.6